Time,TemperatureF,DewpointF,PressureIn,WindDirection,WindDirectionDegrees,WindSpeedMPH,WindSpeedGustMPH,Humidity,HourlyPrecipIn,Conditions,Clouds,dailyrainin,SoftwareType,DateUTC
2013-03-11 00:00:00,48.7,34.1,30.06,South,176,0.0,0.0,57,0.00,,,0.00,Wunderground v.1.15,2013-03-11 04:00:00,
2013-03-11 00:10:00,48.4,34.3,30.06,South,176,0.0,0.0,58,0.00,,,0.00,Wunderground v.1.15,2013-03-11 04:10:00,
2013-03-11 00:20:00,48.2,34.1,30.06,South,178,0.0,0.0,58,0.00,,,0.00,Wunderground v.1.15,2013-03-11 04:20:00,
2013-03-11 00:30:00,48.1,34.0,30.06,SSE,164,0.0,0.0,58,0.00,,,0.00,Wunderground v.1.15,2013-03-11 04:30:00,
2013-03-11 00:40:00,48.1,34.0,30.05,ESE,123,0.0,0.0,58,0.00,,,0.00,Wunderground v.1.15,2013-03-11 04:40:00,
2013-03-11 00:50:00,48.0,33.9,30.05,ESE,123,0.0,0.0,58,0.00,,,0.00,Wunderground v.1.15,2013-03-11 04:50:00,
2013-03-11 01:00:00,47.9,33.8,30.04,ESE,123,0.0,0.0,58,0.00,,,0.00,Wunderground v.1.15,2013-03-11 05:00:00,
2013-03-11 01:10:00,47.8,33.7,30.03,SE,124,0.0,0.0,58,0.00,,,0.00,Wunderground v.1.15,2013-03-11 05:10:00,
2013-03-11 01:20:00,47.6,33.5,30.03,SSE,168,0.0,0.0,58,0.00,,,0.00,Wunderground v.1.15,2013-03-11 05:20:00,
2013-03-11 01:30:00,47.3,33.3,30.03,South,170,0.0,0.0,58,0.00,,,0.00,Wunderground v.1.15,2013-03-11 05:30:00,
2013-03-11 01:40:00,47.0,33.4,30.03,South,169,0.0,0.0,59,0.00,,,0.00,Wunderground v.1.15,2013-03-11 05:40:00,
2013-03-11 01:50:00,46.6,33.0,30.03,South,171,0.0,0.0,59,0.00,,,0.00,Wunderground v.1.15,2013-03-11 05:50:00,
2013-03-11 02:00:00,46.3,33.2,30.03,South,171,0.0,0.0,60,0.00,,,0.00,Wunderground v.1.15,2013-03-11 06:00:00,
2013-03-11 02:10:00,46.1,33.0,30.03,SE,128,0.0,0.0,60,0.00,,,0.00,Wunderground v.1.15,2013-03-11 06:10:00,
2013-03-11 02:20:00,46.0,32.9,30.03,SE,128,0.0,0.0,60,0.00,,,0.00,Wunderground v.1.15,2013-03-11 06:20:00,
2013-03-11 02:30:00,45.8,32.7,30.02,SE,128,0.0,0.0,60,0.00,,,0.00,Wunderground v.1.15,2013-03-11 06:30:00,
2013-03-11 02:40:00,45.7,33.0,30.02,SE,128,0.0,0.0,61,0.00,,,0.00,Wunderground v.1.15,2013-03-11 06:40:00,
2013-03-11 02:50:00,45.5,32.8,30.03,SE,128,0.0,0.0,61,0.00,,,0.00,Wunderground v.1.15,2013-03-11 06:50:00,
2013-03-11 03:00:00,45.4,32.7,30.02,SE,128,0.0,0.0,61,0.00,,,0.00,Wunderground v.1.15,2013-03-11 07:00:00,
2013-03-11 03:10:00,45.2,32.5,30.01,SE,128,0.0,0.0,61,0.00,,,0.00,Wunderground v.1.15,2013-03-11 07:10:00,
2013-03-11 03:20:00,45.1,32.8,30.01,SE,128,0.0,0.0,62,0.00,,,0.00,Wunderground v.1.15,2013-03-11 07:20:00,
2013-03-11 03:30:00,45.0,32.8,30.00,SE,128,0.0,0.0,62,0.00,,,0.00,Wunderground v.1.15,2013-03-11 07:30:00,
2013-03-11 03:40:00,45.1,32.8,30.00,SE,128,0.0,0.0,62,0.00,,,0.00,Wunderground v.1.15,2013-03-11 07:40:00,
2013-03-11 03:50:00,45.1,32.8,30.00,SE,128,0.0,0.0,62,0.00,,,0.00,Wunderground v.1.15,2013-03-11 07:50:00,
2013-03-11 04:00:00,45.0,32.8,30.00,SE,128,0.0,0.0,62,0.00,,,0.00,Wunderground v.1.15,2013-03-11 08:00:00,
2013-03-11 04:10:00,45.0,32.8,29.99,SE,128,0.0,0.0,62,0.00,,,0.00,Wunderground v.1.15,2013-03-11 08:10:00,
2013-03-11 04:20:00,44.9,32.7,29.99,SE,128,0.0,0.0,62,0.00,,,0.00,Wunderground v.1.15,2013-03-11 08:20:00,
2013-03-11 04:30:00,44.7,32.5,29.99,SE,128,0.0,0.0,62,0.00,,,0.00,Wunderground v.1.15,2013-03-11 08:30:00,
2013-03-11 04:40:00,44.6,32.4,29.98,SSE,163,1.0,1.0,62,0.00,,,0.00,Wunderground v.1.15,2013-03-11 08:40:00,
2013-03-11 04:50:00,44.4,31.8,29.98,SSE,163,0.0,1.0,61,0.00,,,0.00,Wunderground v.1.15,2013-03-11 08:50:00,
2013-03-11 05:00:00,44.1,31.5,29.98,SSE,163,0.0,0.0,61,0.00,,,0.00,Wunderground v.1.15,2013-03-11 09:00:00,
2013-03-11 05:10:00,43.9,30.9,29.97,SSE,163,0.0,0.0,60,0.00,,,0.00,Wunderground v.1.15,2013-03-11 09:10:00,
2013-03-11 05:20:00,43.7,30.3,29.97,SSE,163,0.0,0.0,59,0.00,,,0.00,Wunderground v.1.15,2013-03-11 09:20:00,
2013-03-11 05:30:00,43.4,30.4,29.97,SSE,163,0.0,0.0,60,0.00,,,0.00,Wunderground v.1.15,2013-03-11 09:30:00,
2013-03-11 05:40:00,43.2,30.2,29.97,WNW,287,0.0,0.0,60,0.00,,,0.00,Wunderground v.1.15,2013-03-11 09:40:00,
2013-03-11 05:50:00,43.0,29.6,29.97,WNW,287,0.0,0.0,59,0.00,,,0.00,Wunderground v.1.15,2013-03-11 09:50:00,
2013-03-11 06:00:00,43.0,29.6,29.97,WNW,287,0.0,0.0,59,0.00,,,0.00,Wunderground v.1.15,2013-03-11 10:00:00,
2013-03-11 06:10:00,43.2,29.8,29.98,SSW,209,0.0,0.0,59,0.00,,,0.00,Wunderground v.1.15,2013-03-11 10:10:00,
2013-03-11 06:20:00,43.3,30.3,29.97,SSW,209,0.0,1.0,60,0.00,,,0.00,Wunderground v.1.15,2013-03-11 10:20:00,
2013-03-11 06:30:00,43.5,31.3,29.97,South,181,1.0,1.0,62,0.00,,,0.00,Wunderground v.1.15,2013-03-11 10:30:00,
2013-03-11 06:40:00,43.6,31.4,29.97,SSW,199,0.0,0.0,62,0.00,,,0.00,Wunderground v.1.15,2013-03-11 10:40:00,
2013-03-11 06:50:00,43.9,32.5,29.97,SW,217,0.0,2.0,64,0.00,,,0.00,Wunderground v.1.15,2013-03-11 10:50:00,
2013-03-11 07:00:00,44.0,33.0,29.97,SW,217,0.0,1.0,65,0.00,,,0.00,Wunderground v.1.15,2013-03-11 11:00:00,
2013-03-11 07:10:00,44.0,33.4,29.97,SW,217,0.0,0.0,66,0.00,,,0.00,Wunderground v.1.15,2013-03-11 11:10:00,
2013-03-11 07:20:00,43.9,32.9,29.97,SW,217,0.0,0.0,65,0.00,,,0.00,Wunderground v.1.15,2013-03-11 11:20:00,
2013-03-11 07:30:00,43.7,33.1,29.97,SW,217,0.0,1.0,66,0.00,,,0.00,Wunderground v.1.15,2013-03-11 11:30:00,
2013-03-11 07:40:00,43.8,33.9,29.96,SW,217,0.0,0.0,68,0.00,,,0.00,Wunderground v.1.15,2013-03-11 11:40:00,
2013-03-11 07:50:00,43.7,33.5,29.95,SW,217,0.0,0.0,67,0.00,,,0.00,Wunderground v.1.15,2013-03-11 11:50:00,
2013-03-11 08:00:00,43.6,33.0,29.95,SW,217,0.0,0.0,66,0.00,,,0.00,Wunderground v.1.15,2013-03-11 12:00:00,
2013-03-11 08:10:00,43.4,32.4,29.95,SW,217,0.0,0.0,65,0.00,,,0.00,Wunderground v.1.15,2013-03-11 12:10:00,
2013-03-11 08:20:00,43.2,30.6,29.95,SW,217,0.0,0.0,61,0.00,,,0.00,Wunderground v.1.15,2013-03-11 12:20:00,
2013-03-11 08:30:00,43.3,30.3,29.96,SW,217,0.0,0.0,60,0.00,,,0.00,Wunderground v.1.15,2013-03-11 12:30:00,
2013-03-11 08:40:00,43.4,31.6,29.96,SW,217,0.0,0.0,63,0.00,,,0.00,Wunderground v.1.15,2013-03-11 12:40:00,
2013-03-11 08:50:00,43.7,32.3,29.96,SW,217,0.0,0.0,64,0.00,,,0.00,Wunderground v.1.15,2013-03-11 12:50:00,
2013-03-11 09:00:00,44.1,33.5,29.96,SW,217,0.0,0.0,66,0.00,,,0.00,Wunderground v.1.15,2013-03-11 13:00:00,
2013-03-11 09:10:00,44.4,33.7,29.96,SW,217,0.0,0.0,66,0.00,,,0.00,Wunderground v.1.15,2013-03-11 13:10:00,
2013-03-11 09:20:00,44.7,34.0,29.97,SW,217,0.0,0.0,66,0.00,,,0.00,Wunderground v.1.15,2013-03-11 13:20:00,
2013-03-11 09:30:00,45.0,34.3,29.97,SW,217,0.0,0.0,66,0.00,,,0.00,Wunderground v.1.15,2013-03-11 13:30:00,
2013-03-11 09:40:00,45.1,34.4,29.96,ESE,115,0.0,0.0,66,0.00,,,0.00,Wunderground v.1.15,2013-03-11 13:40:00,
2013-03-11 09:50:00,45.7,34.6,29.96,South,183,0.0,1.0,65,0.00,,,0.00,Wunderground v.1.15,2013-03-11 13:50:00,
2013-03-11 10:00:00,46.1,35.4,29.96,South,183,0.0,0.0,66,0.00,,,0.00,Wunderground v.1.15,2013-03-11 14:00:00,
2013-03-11 10:10:00,46.3,35.6,29.96,South,183,0.0,1.0,66,0.00,,,0.00,Wunderground v.1.15,2013-03-11 14:10:00,
2013-03-11 10:20:00,46.5,35.7,29.95,SW,219,0.0,0.0,66,0.00,,,0.00,Wunderground v.1.15,2013-03-11 14:20:00,
2013-03-11 10:30:00,46.8,36.0,29.95,SW,219,0.0,0.0,66,0.00,,,0.00,Wunderground v.1.15,2013-03-11 14:30:00,
2013-03-11 10:40:00,47.2,36.4,29.95,SSW,211,1.0,1.0,66,0.00,,,0.00,Wunderground v.1.15,2013-03-11 14:40:00,
2013-03-11 10:50:00,47.4,36.6,29.95,SSW,210,1.0,2.0,66,0.00,,,0.00,Wunderground v.1.15,2013-03-11 14:50:00,
2013-03-11 11:00:00,47.6,36.4,29.95,SSW,195,1.0,2.0,65,0.00,,,0.00,Wunderground v.1.15,2013-03-11 15:00:00,
2013-03-11 11:10:00,47.8,36.2,29.94,SSW,198,1.0,3.0,64,0.00,,,0.00,Wunderground v.1.15,2013-03-11 15:10:00,
2013-03-11 11:20:00,48.0,36.4,29.94,SSE,165,2.0,2.0,64,0.00,,,0.00,Wunderground v.1.15,2013-03-11 15:20:00,
2013-03-11 11:30:00,48.2,36.2,29.93,SSE,155,2.0,2.0,63,0.00,,,0.00,Wunderground v.1.15,2013-03-11 15:30:00,
2013-03-11 11:40:00,48.3,36.3,29.92,South,176,1.0,1.0,63,0.00,,,0.00,Wunderground v.1.15,2013-03-11 15:40:00,
2013-03-11 11:50:00,48.6,36.6,29.93,SSE,158,1.0,1.0,63,0.00,,,0.00,Wunderground v.1.15,2013-03-11 15:50:00,
2013-03-11 12:00:00,49.3,36.8,29.93,South,190,1.0,1.0,62,0.00,,,0.00,Wunderground v.1.15,2013-03-11 16:00:00,
2013-03-11 12:10:00,50.2,38.9,29.92,SSW,209,2.0,4.0,65,0.00,,,0.00,Wunderground v.1.15,2013-03-11 16:10:00,
2013-03-11 12:20:00,50.8,40.6,29.92,South,186,3.0,3.0,68,0.00,,,0.00,Wunderground v.1.15,2013-03-11 16:20:00,
2013-03-11 12:30:00,51.0,41.6,29.92,South,188,2.0,5.0,70,0.00,,,0.00,Wunderground v.1.15,2013-03-11 16:30:00,
2013-03-11 12:40:00,51.5,43.1,29.91,NNW,333,5.0,5.0,73,0.00,,,0.00,Wunderground v.1.15,2013-03-11 16:40:00,
2013-03-11 12:50:00,52.1,43.7,29.90,SSW,209,4.0,4.0,73,0.00,,,0.00,Wunderground v.1.15,2013-03-11 16:50:00,
2013-03-11 13:00:00,52.5,43.7,29.90,South,180,4.0,5.0,72,0.00,,,0.00,Wunderground v.1.15,2013-03-11 17:00:00,
2013-03-11 13:10:00,52.8,44.7,29.89,South,187,6.0,6.0,74,0.00,,,0.00,Wunderground v.1.15,2013-03-11 17:10:00,
2013-03-11 13:20:00,52.9,44.8,29.89,South,170,5.0,8.0,74,0.00,,,0.00,Wunderground v.1.15,2013-03-11 17:20:00,
2013-03-11 13:30:00,52.7,45.0,29.89,South,185,6.0,6.0,75,0.00,,,0.00,Wunderground v.1.15,2013-03-11 17:30:00,
2013-03-11 13:40:00,52.5,45.2,29.89,SSW,213,4.0,13.0,76,0.00,,,0.00,Wunderground v.1.15,2013-03-11 17:40:00,
2013-03-11 13:50:00,52.3,45.3,29.88,SSW,208,6.0,6.0,77,0.00,,,0.00,Wunderground v.1.15,2013-03-11 17:50:00,
2013-03-11 14:00:00,52.1,45.4,29.88,South,184,5.0,5.0,78,0.00,,,0.00,Wunderground v.1.15,2013-03-11 18:00:00,
2013-03-11 14:10:00,52.0,45.4,29.88,SSW,206,3.0,3.0,78,0.00,,,0.00,Wunderground v.1.15,2013-03-11 18:10:00,
2013-03-11 14:20:00,52.1,45.4,29.87,South,171,3.0,3.0,78,0.00,,,0.00,Wunderground v.1.15,2013-03-11 18:20:00,
2013-03-11 14:30:00,52.4,45.7,29.87,SSW,209,3.0,3.0,78,0.00,,,0.00,Wunderground v.1.15,2013-03-11 18:30:00,
2013-03-11 14:40:00,52.4,45.1,29.85,SSW,210,3.0,3.0,76,0.00,,,0.00,Wunderground v.1.15,2013-03-11 18:40:00,
2013-03-11 14:50:00,52.4,45.4,29.84,SE,126,3.0,4.0,77,0.00,,,0.00,Wunderground v.1.15,2013-03-11 18:50:00,
2013-03-11 15:00:00,52.6,45.6,29.84,South,182,4.0,4.0,77,0.00,,,0.00,Wunderground v.1.15,2013-03-11 19:00:00,
2013-03-11 15:10:00,52.6,45.6,29.83,SE,144,5.0,5.0,77,0.00,,,0.00,Wunderground v.1.15,2013-03-11 19:10:00,
2013-03-11 15:20:00,53.0,46.0,29.83,South,182,6.0,6.0,77,0.00,,,0.00,Wunderground v.1.15,2013-03-11 19:20:00,
2013-03-11 15:30:00,53.1,46.4,29.82,SSE,162,6.0,6.0,78,0.00,,,0.00,Wunderground v.1.15,2013-03-11 19:30:00,
2013-03-11 15:40:00,52.9,46.6,29.81,WSW,245,6.0,6.0,79,0.00,,,0.00,Wunderground v.1.15,2013-03-11 19:40:00,
2013-03-11 15:50:00,53.0,46.7,29.81,SE,146,6.0,8.0,79,0.00,,,0.00,Wunderground v.1.15,2013-03-11 19:50:00,
2013-03-11 16:00:00,52.9,46.6,29.82,SSW,210,6.0,9.0,79,0.00,,,0.00,Wunderground v.1.15,2013-03-11 20:00:00,
2013-03-11 16:10:00,52.6,45.9,29.82,SSE,164,5.0,5.0,78,0.00,,,0.00,Wunderground v.1.15,2013-03-11 20:10:00,
2013-03-11 16:20:00,52.4,45.7,29.82,South,175,3.0,3.0,78,0.00,,,0.00,Wunderground v.1.15,2013-03-11 20:20:00,
2013-03-11 16:30:00,52.2,45.9,29.82,SSW,194,3.0,3.0,79,0.00,,,0.00,Wunderground v.1.15,2013-03-11 20:30:00,
2013-03-11 16:40:00,52.3,46.0,29.81,SE,136,3.0,5.0,79,0.00,,,0.00,Wunderground v.1.15,2013-03-11 20:40:00,
2013-03-11 16:50:00,52.3,46.0,29.82,South,183,2.0,2.0,79,0.00,,,0.00,Wunderground v.1.15,2013-03-11 20:50:00,
2013-03-11 17:00:00,52.2,45.9,29.81,SE,146,2.0,2.0,79,0.00,,,0.00,Wunderground v.1.15,2013-03-11 21:00:00,
2013-03-11 17:10:00,52.1,46.1,29.81,SE,129,2.0,2.0,80,0.00,,,0.00,Wunderground v.1.15,2013-03-11 21:10:00,
2013-03-11 17:20:00,52.2,46.2,29.80,SE,144,1.0,1.0,80,0.00,,,0.00,Wunderground v.1.15,2013-03-11 21:20:00,
2013-03-11 17:30:00,52.2,46.5,29.80,South,172,1.0,1.0,81,0.00,,,0.00,Wunderground v.1.15,2013-03-11 21:30:00,
2013-03-11 17:40:00,52.2,46.5,29.78,SSW,192,1.0,1.0,81,0.00,,,0.00,Wunderground v.1.15,2013-03-11 21:40:00,
2013-03-11 17:50:00,52.2,46.5,29.80,SE,142,2.0,2.0,81,0.00,,,0.00,Wunderground v.1.15,2013-03-11 21:50:00,
2013-03-11 18:00:00,52.1,46.8,29.79,SSE,148,1.0,1.0,82,0.00,,,0.00,Wunderground v.1.15,2013-03-11 22:00:00,
2013-03-11 18:10:00,52.0,47.0,29.80,South,173,1.0,1.0,83,0.00,,,0.00,Wunderground v.1.15,2013-03-11 22:10:00,
2013-03-11 18:20:00,52.0,47.0,29.77,SE,138,1.0,1.0,83,0.00,,,0.00,Wunderground v.1.15,2013-03-11 22:20:00,
2013-03-11 18:30:00,51.9,46.9,29.79,SSW,200,1.0,2.0,83,0.00,,,0.00,Wunderground v.1.15,2013-03-11 22:30:00,
2013-03-11 18:40:00,51.9,46.9,29.79,South,182,1.0,1.0,83,0.00,,,0.00,Wunderground v.1.15,2013-03-11 22:40:00,
2013-03-11 18:50:00,51.8,47.1,29.79,South,182,0.0,1.0,84,0.00,,,0.00,Wunderground v.1.15,2013-03-11 22:50:00,
2013-03-11 19:00:00,51.8,47.1,29.78,SSE,157,1.0,1.0,84,0.00,,,0.00,Wunderground v.1.15,2013-03-11 23:00:00,
2013-03-11 19:10:00,51.8,47.1,29.78,SSW,198,1.0,2.0,84,0.00,,,0.00,Wunderground v.1.15,2013-03-11 23:10:00,
2013-03-11 19:20:00,51.8,47.1,29.77,SSE,161,0.0,5.0,84,0.00,,,0.00,Wunderground v.1.15,2013-03-11 23:20:00,
2013-03-11 19:30:00,51.8,47.1,29.77,SSW,193,1.0,1.0,84,0.00,,,0.00,Wunderground v.1.15,2013-03-11 23:30:00,
2013-03-11 19:40:00,51.7,47.0,29.78,SE,146,1.0,1.0,84,0.00,,,0.00,Wunderground v.1.15,2013-03-11 23:40:00,
2013-03-11 19:50:00,51.6,47.2,29.77,SSE,156,1.0,1.0,85,0.00,,,0.00,Wunderground v.1.15,2013-03-11 23:50:00,
2013-03-11 20:00:00,51.5,47.1,29.76,South,180,0.0,0.0,85,0.00,,,0.00,Wunderground v.1.15,2013-03-12 00:00:00,
2013-03-11 20:10:00,51.4,47.0,29.76,SSE,162,1.0,1.0,85,0.00,,,0.00,Wunderground v.1.15,2013-03-12 00:10:00,
2013-03-11 20:20:00,51.4,47.0,29.77,South,188,0.0,0.0,85,0.00,,,0.00,Wunderground v.1.15,2013-03-12 00:20:00,
2013-03-11 20:30:00,51.4,47.4,29.76,SSE,153,0.0,4.0,86,0.00,,,0.00,Wunderground v.1.15,2013-03-12 00:30:00,
2013-03-11 20:40:00,51.5,47.5,29.76,SE,141,1.0,2.0,86,0.00,,,0.00,Wunderground v.1.15,2013-03-12 00:40:00,
2013-03-11 20:50:00,51.9,48.2,29.76,SE,140,2.0,7.0,87,0.00,,,0.00,Wunderground v.1.15,2013-03-12 00:50:00,
2013-03-11 21:00:00,52.2,48.4,29.76,SSW,202,2.0,2.0,87,0.00,,,0.00,Wunderground v.1.15,2013-03-12 01:00:00,
2013-03-11 21:10:00,52.4,48.6,29.75,SSW,198,2.0,2.0,87,0.00,,,0.00,Wunderground v.1.15,2013-03-12 01:10:00,
2013-03-11 21:20:00,52.5,49.0,29.75,South,180,2.0,2.0,88,0.00,,,0.00,Wunderground v.1.15,2013-03-12 01:20:00,
2013-03-11 21:30:00,52.5,49.0,29.75,SSW,195,1.0,1.0,88,0.00,,,0.00,Wunderground v.1.15,2013-03-12 01:30:00,
2013-03-11 21:40:00,52.5,49.0,29.75,SSW,212,0.0,0.0,88,0.00,,,0.00,Wunderground v.1.15,2013-03-12 01:40:00,
2013-03-11 21:50:00,52.4,48.9,29.76,SSW,211,0.0,0.0,88,0.00,,,0.00,Wunderground v.1.15,2013-03-12 01:50:00,
2013-03-11 22:00:00,52.4,49.3,29.76,SSW,211,0.0,0.0,89,0.09,,,0.02,Wunderground v.1.15,2013-03-12 02:00:00,
2013-03-11 22:10:00,52.3,49.5,29.75,SSW,212,0.0,0.0,90,0.17,,,0.05,Wunderground v.1.15,2013-03-12 02:10:00,
2013-03-11 22:20:00,52.2,49.4,29.75,SSW,211,0.0,0.0,90,0.09,,,0.07,Wunderground v.1.15,2013-03-12 02:20:00,
2013-03-11 22:30:00,51.9,49.4,29.75,SSW,211,0.0,0.0,91,0.12,,,0.09,Wunderground v.1.15,2013-03-12 02:30:00,
2013-03-11 22:40:00,51.7,49.5,29.75,SSW,211,0.0,0.0,92,0.15,,,0.12,Wunderground v.1.15,2013-03-12 02:40:00,
2013-03-11 22:50:00,51.5,49.5,29.75,SSW,211,0.0,0.0,93,0.25,,,0.15,Wunderground v.1.15,2013-03-12 02:50:00,
2013-03-11 23:00:00,51.4,49.4,29.75,SSW,211,0.0,0.0,93,0.19,,,0.19,Wunderground v.1.15,2013-03-12 03:00:00,
2013-03-11 23:10:00,51.3,49.6,29.74,SSW,211,0.0,0.0,94,0.09,,,0.20,Wunderground v.1.15,2013-03-12 03:10:00,
2013-03-11 23:20:00,51.2,49.5,29.74,SSW,212,0.0,0.0,94,0.13,,,0.23,Wunderground v.1.15,2013-03-12 03:20:00,
2013-03-11 23:30:00,51.1,49.4,29.74,WSW,240,0.0,0.0,94,0.11,,,0.25,Wunderground v.1.15,2013-03-12 03:30:00,
2013-03-11 23:40:00,51.0,49.6,29.74,WSW,240,0.0,0.0,95,0.05,,,0.25,Wunderground v.1.15,2013-03-12 03:40:00,
2013-03-11 23:50:00,51.0,49.6,29.73,WSW,240,0.0,0.0,95,0.04,,,0.26,Wunderground v.1.15,2013-03-12 03:50:00,